www.pogodaiklimat.ru
ПОГОДА в Берлин-Далеме

Архив погоды в Берлин-Далеме (Германия)

Время
(UTC), дата
19 10.06
20 10.06
21 10.06
22 10.06
23 10.06
00 11.06
01 11.06
02 11.06
03 11.06
04 11.06
05 11.06
06 11.06
07 11.06
08 11.06
09 11.06
10 11.06
11 11.06
12 11.06
13 11.06
14 11.06
15 11.06
16 11.06
17 11.06
18 11.06
19 11.06
20 11.06
21 11.06
22 11.06
23 11.06
00 12.06
01 12.06
02 12.06
03 12.06
04 12.06
05 12.06
06 12.06
07 12.06
08 12.06
09 12.06
10 12.06
11 12.06
12 12.06
13 12.06
14 12.06
15 12.06
16 12.06
17 12.06
18 12.06
19 12.06
20 12.06
21 12.06
22 12.06
23 12.06
00 13.06
01 13.06
02 13.06
03 13.06
04 13.06
05 13.06
06 13.06
07 13.06
08 13.06
09 13.06
10 13.06
11 13.06
12 13.06
13 13.06
14 13.06
15 13.06
16 13.06
17 13.06
18 13.06
19 13.06
20 13.06
21 13.06
22 13.06
23 13.06
00 14.06
01 14.06
02 14.06
03 14.06
04 14.06
05 14.06
06 14.06
07 14.06
08 14.06
09 14.06
10 14.06
11 14.06
12 14.06
13 14.06
14 14.06
15 14.06
16 14.06
17 14.06
18 14.06
19 14.06
20 14.06
21 14.06
22 14.06
23 14.06
00 15.06
01 15.06
02 15.06
03 15.06
04 15.06
05 15.06
06 15.06
07 15.06
08 15.06
09 15.06
10 15.06
11 15.06
12 15.06
13 15.06
14 15.06
15 15.06
16 15.06
17 15.06
18 15.06
19 15.06
20 15.06
21 15.06
22 15.06
23 15.06
00 16.06
01 16.06
02 16.06
03 16.06
04 16.06
05 16.06
06 16.06
07 16.06
08 16.06
09 16.06
10 16.06
11 16.06
12 16.06
13 16.06
14 16.06
15 16.06
16 16.06
17 16.06
18 16.06
19 16.06
20 16.06
21 16.06
22 16.06
23 16.06
00 17.06
01 17.06
02 17.06
03 17.06
04 17.06
05 17.06
06 17.06
07 17.06
08 17.06
09 17.06
10 17.06
11 17.06
12 17.06
13 17.06
14 17.06
15 17.06
16 17.06
17 17.06
18 17.06
19 17.06
20 17.06
Ветер
(напр.,м/с)
Видим. Явления Облачность Т
(С)
Тd
(С)
f
(%)
Тe
(С)
Тes
(С)
Комфортность P
(гПа)
Po
(гПа)
Тmin
(С)
Tmax
(С)
R
(мм)
R24
(мм)
S
(см)
СЗ 3 15 км слаб. дождь 10/9 2000 м
[Sc]
+12.9 +11.1 89 +11 +11 1005.9 996.4
С 2 15 км слаб. дождь 10/9 1500 м
[Sc]
+12.5 +11.4 93 +11 +11 1005.9 996.4
ЮВ 2 15 км слаб. дождь 10/9 2000 м
[Sc]
+12.5 +11.9 96 +11 +11 1005.9 996.4 2
ЮВ 3 30 км в посл. час дождь 9/6 2000 м
[Sc Ac trans]
+12.5 +12.2 98 +11 +11 1005.3 995.8
ЮВ 3 30 км 10/9 1500 м
[Sc]
+12.4 +12.2 99 +11 +11 1005.0 995.5
Ю 4 30 км {дождь} 10/9 300 м
[Sc]
+12.4 +12.1 98 +10 +10 1005.1 995.6 0.2
ЮЗ 3 35 км в посл. час дождь 10/9 840 м
[Sc]
+12.5 +11.7 95 +11 +11 1005.0 995.5
ЮЗ 5 35 км 8/8 420 м
[Sc]
+12.1 +11.3 95 +10 +10 1004.7 995.2
ЮЗ 5 35 км {дождь} 8/8 800 м
[Sc Ci fib]
+10.7 +8.4 86 +8 +8 1005.0 995.4 0.1
ЮЗ 5 35 км слаб. дождь 9/9 660 м
[Sc]
+10.6 +8.0 84 +8 +8 1005.4 995.8
ЮЗ 7 20 км слаб. дождь 9/9 400 м
[Sc]
+9.9 +7.6 86 +6 +6 1006.0 996.4
ЮЗ 5 45 км слаб. морось {дождь} 9/9 300 м
[Sc]
+10.7 +8.2 85 +8 +8 1006.9 997.3 +9.9 +15.8 0.0 1.8
З 6 {15} 35 км слаб. дождь {морось} 9/9 360 м
[Sc]
+11.4 +8.8 84 +8 +9 1007.8 998.2
З 6 {13} 40 км в посл. час дождь 9/9 700 м
[Cu Sc]
+12.6 +8.2 75 +10 +11 1009.0 999.5
З 7 {15} 17 км слаб. ливневой дождь {морось} 9/9 500 м
[Cu Sc]
+12.4 +7.6 73 +10 +10 1010.1 1000.5 0.0
З 5 40 км в посл. час ливневой дождь 9/9 800 м
[Cu Sc]
+14.4 +7.8 65 +13 +14 1010.6 1001.1
З 7 {13} 45 км в посл. час ливневой дождь 9/9 900 м
[Cu Sc]
+13.6 +7.0 64 +11 +12 1011.5 1002.0
З 6 {15} 50 км в посл. час ливневой дождь 9/9 1080 м
[Cu Sc]
+14.5 +7.2 62 +13 +13 1011.8 1002.3 0.1
З 7 {13} 50 км в посл. час ливневой дождь 9/9 1140 м
[Cu Sc]
+14.7 +6.9 59 +13 +13 1012.3 1002.8
З 6 {13} 45 км 8/8 1140 м
[Cu Sc]
+15.6 +7.0 57 +14 +15 1012.7 1003.2
З 6 {14} 45 км 6/6 1200 м
[Cu Sc]
+16.7 +5.1 46 +16 +17 1012.4 1003.0 0.0
З 4 45 км 5/5 1500 м
[Cu Sc]
+17.6 +5.3 44 +17 +19 1012.5 1003.1
З 5 50 км 4/4 1500 м
[Cu Sc]
+17.2 +3.6 40 +17 +17 1012.4 1003.0
З 4 {14} 50 км {ливн. дождь} 6/6 1500 м
[Cu med, cong]
+16.1 +5.2 48 +15 +16 1012.9 1003.4 +10.5 +17.8
З 5 {14} 50 км в посл. час ливневой дождь 3/3 1500 м
[Cu med, cong]
+14.2 +7.4 64 +13 +13 1013.7 1004.2
З 4 50 км ясно +13.1 +6.6 65 +12 +12 1014.4 1004.8
З 4 {14} 50 км {ливн. дождь} ясно +12.3 +7.1 71 +10 +10 1015.0 1005.4 0.0
З 4 н/о н/о +10.9 +7.7 81 +8 +8 1015.6 1005.9
ЮЗ 3 50 км 1/0
[Ac trans]
+9.5 +7.9 90 +7 +7 1016.2 1006.5
ЮЗ 3 {14} н/о н/о +8.7 +7.3 91 +6 +6 1016.0 1006.3
З 4 50 км 1/0
[Ci fib]
+8.6 +7.0 90 +5 +5 1015.7 1006.0
З 3 50 км 1/0
[Ci fib]
+9.5 +7.1 85 +7 +7 1015.9 1006.2
ЮЗ 3 н/о н/о +7.7 +6.8 94 +5 +5 1016.1 1006.3
ЮЗ 2 45 км 1/0
[Ac trans Ci fib]
+8.8 +7.4 91 +7 +7 1016.3 1006.6
ЮЗ 2 40 км 1/0
[Ci sp]
+9.7 +7.6 87 +8 +10 1016.4 1006.7
З 4 50 км 1/1 700 м
[Cu hum]
+11.8 +8.0 78 +10 +10 1016.8 1007.2 +7.6 +16.2 0.1
З 5 50 км 4/4 700 м
[Cu Sc]
+12.9 +7.0 67 +11 +13 1017.2 1007.6
З 5 50 км 5/5 1000 м
[Cu med, cong]
+14.0 +7.0 63 +12 +15 1017.1 1007.5
З 4 50 км в посл. час ливневой дождь 6/6 1000 м
[Cu Sc]
+14.9 +7.6 62 +14 +18 1016.9 1007.4 0.0
ЮЗ 5 50 км в посл. час ливневой дождь 6/6 1080 м
[Cu Sc]
+16.5 +7.0 53 +16 +19 1016.9 1007.4
ЮЗ 3 30 км в посл. час ливневой дождь 8/8 1300 м
[Cu Sc]
+12.7 +8.7 77 +11 +14 1017.4 1007.8
З 3 40 км в посл. час ливневой дождь 6/6 1380 м
[Cb cap Ac cuf]
+15.3 +6.4 55 +15 +20 1017.1 1007.6 0.2
З 4 50 км в посл. час ливневой дождь 8/5 1440 м
[Cb cap Ac cuf]
+14.8 +5.7 54 +14 +17 1017.1 1007.5
З 4 50 км осадки на расстоянии 6/4 1440 м
[Cb cap Ac cuf]
+16.3 +5.4 48 +16 +19 1016.7 1007.2
З 7 50 км осадки на расстоянии {ливн. дождь} 4/4 1380 м
[Cb cap Ac trans]
+16.5 +6.2 51 +15 +17 1016.7 1007.2 0.0
З 4 {13} 50 км осадки на расстоянии 4/1 1380 м
[Cb calv Ac cuf]
+15.8 +5.2 49 +15 +17 1016.5 1007.0
З 5 50 км осадки на расстоянии 5/1 1380 м
[Cb calv Ac cuf]
+15.4 +6.8 56 +14 +15 1016.6 1007.1
З 4 {13} 50 км {ливн. дождь} 5/1 1380 м
[Cb calv Ac trans]
+15.0 +6.4 56 +14 +14 1016.4 1006.9 +11.7 +17.6
З 2 50 км 3/1 1380 м
[Cb calv Ac trans]
+14.2 +6.2 59 +14 +14 1016.7 1007.1
З 2 50 км осадки на расстоянии 1/1 1380 м
[Cb calv Ac trans]
+11.9 +8.1 78 +11 +11 1017.1 1007.5
СЗ 3 50 км 6/1 1500 м
[Sc diur, vesp Ac und Ci fib]
+10.4 +7.9 84 +8 +8 1017.6 1007.9
СЗ 3 50 км 5/1 1500 м
[Sc diur, vesp Ac As]
+9.7 +8.0 89 +7 +7 1017.8 1008.1
З 2 50 км 9/1 2000 м
[Sc Ac und]
+9.4 +8.5 94 +8 +8 1017.8 1008.1
З 2 50 км 9/6 1500 м
[Sc Ac trans]
+10.3 +8.4 88 +9 +9 1017.8 1008.1
З 3 50 км в посл. час дождь 9/3 2000 м
[Sc Ac und]
+10.8 +7.6 81 +9 +9 1017.7 1008.0
З 2 50 км в посл. час дождь 6/0
[Ac As]
+9.9 +8.1 89 +8 +8 1017.5 1007.8
З 2 50 км {дождь} 8/1 2000 м
[Sc Ac As Ci sp]
+9.1 +8.0 93 +7 +7 1017.7 1008.0 0.0
З 2 50 км 9/1 2000 м
[Sc Ac und Ci]
+9.2 +8.4 95 +7 +8 1017.9 1008.2
ЮЗ 2 50 км осадки на расстоянии 8/0
[Ac As Ci]
+10.4 +8.6 89 +9 +10 1018.2 1008.5
З 3 50 км {дождь} 8/1 600 м
[Cu Sc Ac As Ci fib]
+11.6 +7.2 74 +10 +12 1018.4 1008.7 +8.8 +15.4 0.2
З 3 50 км 8/1 720 м
[Cu Sc Ac As Ci fib]
+12.5 +6.4 66 +11 +15 1018.5 1008.9
З 4 50 км 8/4 1300 м
[Cu Sc Ac trans]
+13.8 +6.3 61 +12 +15 1018.5 1008.9
З 4 50 км 5/5 1000 м
[Cu Sc]
+14.7 +6.4 57 +14 +18 1018.4 1008.8
З 5 50 км 5/5 1200 м
[Cu med, cong Ac trans]
+15.6 +4.4 47 +15 +19 1018.1 1008.6
З 3 50 км осадки на расстоянии 4/4 1500 м
[Cu med, cong]
+16.5 +5.5 48 +16 +25 1017.5 1008.0
З 4 50 км 4/4 1500 м
[Cu Sc]
+16.4 +4.5 45 +16 +22 1017.3 1007.8
З 4 50 км 4/4 1500 м
[Cu Sc]
+18.1 +3.3 37 +18 +24 1016.9 1007.5
З 5 50 км 4/4 1500 м
[Cu Sc]
+18.1 +2.9 36 +18 +21 1016.8 1007.4
З 3 50 км 4/4 1500 м
[Cu Sc]
+17.9 +2.3 35 +18 +22 1016.7 1007.2
СЗ 4 50 км 4/3 1500 м
[Cu med, cong Ac cuf]
+17.9 +3.1 37 +18 +20 1016.6 1007.1
СЗ 3 50 км 1/1 1500 м
[Cu med, cong Ac cuf Ci fib]
+17.5 +3.1 38 +18 +19 1016.5 1007.0
СЗ 3 50 км 1/1 1500 м
[Cu med, cong Ac cuf Ci fib]
+17.1 +3.1 39 +17 +18 1016.7 1007.2 +11.5 +18.9
СЗ 2 30 км 3/0
[Ac und Ci fib]
+15.7 +5.1 49 +16 +16 1016.8 1007.3
СЗ 2 25 км 5/0
[Ac und Ci fib]
+12.7 +7.3 70 +12 +12 1016.9 1007.3
СЗ 1 50 км 9/0
[Ac und]
+11.5 +6.1 69 +11 +11 1017.0 1007.3
СВ 1 50 км 3/0
[Ac trans]
+10.9 +6.8 76 +11 +11 1016.7 1007.0
ЮВ 2 50 км 6/0
[Ac trans Ci]
+9.5 +6.9 84 +8 +8 1016.5 1006.8
ЮВ 3 50 км 8/0
[Ci fib]
+8.7 +7.3 91 +6 +6 1016.3 1006.6
ЮВ 3 50 км 9/0
[Ac As]
+8.4 +7.2 92 +6 +6 1016.0 1006.2
ЮВ 3 50 км 9/1 2000 м
[Sc Ac As]
+8.4 +7.0 91 +6 +6 1015.4 1005.7
ЮВ 3 50 км 9/1 2000 м
[Sc Ac As]
+9.0 +7.3 89 +6 +6 1015.1 1005.4
ЮВ 3 50 км 10/1 2000 м
[Sc Ac As]
+9.9 +7.3 84 +8 +8 1014.7 1005.0
ЮВ 2 45 км 10/1 2000 м
[Sc Ac As]
+11.3 +7.3 76 +10 +11 1014.6 1005.0
ЮВ 3 45 км 10/3 2000 м
[Sc As trans]
+13.2 +7.8 70 +12 +13 1014.2 1004.6 +8.3 +17.2
ЮВ 3 45 км 10/3 1500 м
[Sc Ac As]
+14.4 +8.0 65 +14 +15 1014.0 1004.5
Ю 3 45 км 10/4 2000 м
[Sc As trans]
+16.2 +9.0 62 +16 +18 1013.6 1004.1
ЮВ 3 45 км 10/4 2000 м
[Sc Ac As]
+17.6 +8.8 56 +18 +20 1013.3 1003.9
ЮВ 4 45 км 10/0
[Ac As]
+18.6 +8.9 53 +19 +22 1013.0 1003.6
ЮВ 5 20 км 10/4 1500 м
[Sc diur, vesp As op]
+20.0 +9.7 51 +21 +22 комфорт 1012.6 1003.3
ЮЗ 5 {14} 5000 м слаб. дождь {ливн. дождь} 10/3 1500 м
[Sc Ac As]
+14.6 +12.8 89 +13 +15 1013.5 1004.0 1
Ю 4 22 км слаб. дождь 10/1 2000 м
[Sc Ac As]
+15.7 +13.1 85 +15 +15 1013.3 1003.8
ЮВ 3 30 км в посл. час дождь 9/9 1500 м
[Sc]
+15.3 +13.1 87 +15 +16 1012.9 1003.4
ЮВ 3 50 км {дождь} 9/9 1500 м
[Sc]
+15.3 +13.1 87 +15 +15 1012.2 1002.7 0.2
Ю 2 40 км 9/9 2000 м
[Sc]
+16.1 +12.0 77 +16 +17 1011.9 1002.5
Ю 1 25 км осадки на расстоянии 10/9 1500 м
[Sc]
+15.8 +12.3 80 +16 +17 1011.7 1002.2
ЮВ 2 40 км в посл. час дождь 9/9 1500 м
[Sc]
+15.3 +12.9 86 +15 +15 1011.2 1001.7 +13.2 +20.4
ЮВ 3 15 км осадки на расстоянии 9/9 1500 м
[Sc]
+14.9 +12.9 88 +14 +14 1010.9 1001.4
ЮВ 3 30 км 5/5
[Sc]
+14.0 +12.4 90 +13 +13 1010.8 1001.3
ЮВ 3 35 км 4/3 2000 м
[Sc Ac trans Ci fib]
+13.0 +12.0 94 +12 +12 1010.4 1000.9
ЮВ 3 30 км 8/3 1500 м
[Sc Ac trans Ci]
+12.2 +11.9 98 +10 +10 1010.1 1000.5
Ю 3 30 км 6/1 1500 м
[Sc Ac trans Ci fib]
+11.7 +11.4 98 +10 +10 1009.6 1000.0
ЮВ 4 н/о н/о +11.3 +11.1 99 +9 +9 1009.1 999.5
ЮВ 3 30 км 6/1 2000 м
[Sc Ac trans Ci fib]
+11.0 +11.0 100 +9 +9 1008.2 998.6
ЮВ 3 30 км 8/0
[Ac und Ci fib]
+10.7 +10.7 100 +8 +8 1007.7 998.1
ЮВ 4 30 км 9/0
[Ac und Ci fib]
+10.8 +10.8 100 +8 +8 1006.9 997.3
ЮВ 3 30 км 9/4 2000 м
[Sc Ac As]
+11.9 +11.9 100 +10 +10 1006.4 996.9
ЮВ 3 25 км 9/9 1500 м
[Sc]
+13.7 +13.1 96 +12 +13 1005.8 996.3
ЮВ 3 30 км 9/1 480 м
[Cu hum Ac und]
+15.7 +12.8 83 +15 +16 1005.4 996.0 +10.6 +15.7 1.5
Ю 4 35 км 10/9 1500 м
[Sc]
+16.9 +12.8 77 +16 +17 1005.4 996.0
Ю 4 9000 м дождь 10/6 1000 м
[Sc As op]
+15.4 +13.9 91 +14 +15 1006.3 996.9
Ю 5 15 км слаб. дождь 10/6 180 м
[Frnb As op]
+15.4 +14.4 94 +14 +15 1006.3 996.9 3
Ю 4 35 км в посл. час дождь 10/9 270 м
[Sc]
+16.1 +14.9 93 +15 +16 1006.3 996.9
Ю 5 45 км 8/5 600 м
[Cu Sc Ac trans]
+19.0 +15.0 78 +20 +23 1006.1 996.8
ЮЗ 7 45 км {дождь} 8/5 1200 м
[Cb calv Ac trans]
+20.5 +13.3 63 +22 +24 комфорт 1006.0 996.8 0.1
ЮЗ 6 45 км в посл. час ливневой дождь 8/6 1300 м
[Cb calv Ac trans Ci fib]
+20.8 +11.3 54 +23 +24 комфорт 1006.0 996.8
ЮЗ 4 45 км 8/6 1200 м
[Cb cap As op Ci fib]
+20.5 +11.5 56 +22 +25 комфорт 1006.4 997.1
ЮЗ 4 45 км {ливн. дождь} 8/6 2000 м
[Cu med, cong As op]
+22.3 +7.8 39 +23 +25 комфорт 1006.4 997.2 0.0
З 6 {13} 45 км 6/5 2000 м
[Cu med, cong As op]
+21.5 +8.8 44 +23 +24 комфорт 1007.1 997.9
З 4 40 км 8/6 2000 м
[Cu Sc As op Ci fib]
+20.6 +8.0 44 +22 +22 комфорт 1007.6 998.3
З 2 {13} 40 км {ливн. дождь} 8/8 1500 м
[Cu Sc Ac trans]
+20.8 +8.2 44 +23 +23 комфорт 1007.8 998.5 +15.2 +22.8
З 1 40 км 8/8 2000 м
[Sc Ac trans]
+20.0 +8.5 47 +22 +22 комфорт 1008.5 999.2
З 2 40 км в посл. час дождь 6/6 1500 м
[Sc Ac trans]
+17.7 +9.5 59 +18 +18 1009.2 999.8
З 2 40 км {дождь} 5/3 2000 м
[Sc Ci fib]
+15.3 +11.2 77 +15 +15 1010.0 1000.5 0.0
С 3 40 км 4/3 2000 м
[Sc Ac und Ci]
+12.8 +10.3 85 +11 +11 1010.2 1000.7
В 2 40 км 8/0
[Ac trans Ci]
+11.5 +9.4 87 +10 +10 1010.4 1000.8
В 2 н/о н/о +10.8 +10.0 95 +9 +9 1010.3 1000.7
Ю 3 40 км 8/3
[Sc Ac und]
+10.5 +10.0 97 +8 +8 1010.1 1000.5
ЮЗ 3 40 км 9/4 2000 м
[Sc Ac und]
+10.9 +10.3 96 +9 +9 1010.0 1000.4
ЮЗ 4 45 км 8/3 2000 м
[Sc Ac lent]
+10.3 +9.5 95 +8 +8 1010.3 1000.7
Ю 3 45 км 5/3 2000 м
[Sc Ac lent]
+10.3 +9.5 95 +8 +8 1010.4 1000.8
Ю 2 45 км 3/3 2000 м
[Sc]
+12.1 +10.3 89 +11 +12 1010.7 1001.1
ЮЗ 2 45 км 5/4 2000 м
[Sc Ac und Ci]
+15.3 +8.9 66 +15 +18 1010.6 1001.1 +10.2 +21.2 3.0
ЮЗ 2 45 км 6/0
[Ac trans Ci]
+18.9 +7.4 47 +20 +26 1010.7 1001.3
Ю 3 45 км 5/1 1500 м
[Cu hum Ac lent Ci fib]
+20.7 +7.1 41 +22 +28 комфорт 1010.5 1001.2
ЮЗ 5 45 км 8/5 1500 м
[Cu Sc Ac lent Ci]
+21.5 +5.9 36 +22 +25 комфорт 1010.3 1001.0
Ю 4 45 км 8/5 1500 м
[Cu Sc Ac lent Ci sp]
+23.0 +5.9 33 +23 +27 комфорт 1010.0 1000.8
ЮЗ 5 45 км 8/6 2000 м
[Cu Sc Ac trans Ci fib]
+23.8 +7.9 36 +24 +27 комфорт 1009.7 1000.5
Ю 5 45 км 9/6 2000 м
[Cu Sc Ac lent Ci]
+23.6 +8.9 39 +24 +27 комфорт 1009.4 1000.2
ЮЗ 5 45 км осадки на расстоянии 8/5 2000 м
[Sc diur, vesp Ac lent Ci sp]
+23.0 +6.8 35 +24 +26 комфорт 1009.2 1000.0
Ю 5 50 км осадки на расстоянии 9/4 1500 м
[Cb cap Ac As Ci]
+24.1 +6.5 32 +24 +26 комфорт 1009.1 999.9
ЮЗ 6 20 км слаб. ливневой дождь 9/8 1500 м
[Cb cap]
+19.1 +11.5 61 +20 +20 1009.7 1000.4 0.0
ЮЗ 4 50 км в посл. час ливневой дождь 6/4 1500 м
[Cb calv Ac cuf Ci fib]
+22.5 +9.4 43 +24 +26 комфорт 1009.1 999.9
ЮЗ 4 50 км 4/1 2000 м
[Cb calv Ac trans Ci fib]
+23.0 +9.1 41 +24 +26 комфорт 1008.9 999.7
ЮЗ 4 50 км {ливн. дождь} 4/3 2000 м
[Cb calv Ac trans Ci fib]
+22.5 +9.7 44 +24 +24 комфорт 1009.0 999.8 +15.3 +24.8 0.0
Ю 2 50 км 9/5 2000 м
[Cu Sc Ac und Ci fib]
+20.4 +12.5 60 +23 +23 комфорт 1009.5 1000.2
Ю 2 50 км 9/5 2000 м
[Cu Sc Ac und Ci fib]
+18.7 +13.0 69 +20 +20 1010.1 1000.8
Ю 2 50 км 9/4 2000 м
[Sc Ac und]
+17.0 +13.1 78 +17 +17 1010.3 1000.9
Ю 2 н/о н/о +16.7 +13.0 79 +17 +17 1010.5 1001.1
Ю 3 н/о н/о +16.6 +13.5 82 +16 +16 1010.8 1001.4
Ю 2 н/о н/о +16.6 +12.5 77 +17 +17 1010.9 1001.5
Ю 3 н/о н/о +15.2 +12.3 83 +14 +14 1011.2 1001.7
Ю 2 н/о н/о +15.5 +12.8 84 +15 +15 1011.4 1001.9
ЮЗ 3 н/о н/о +14.5 +12.5 88 +14 +14 1011.5 1002.0
ЮЗ 3 н/о н/о +14.6 +12.8 89 +14 +14 1011.6 1002.1
ЮЗ 2 50 км 6/0
[Ac trans]
+16.8 +12.1 74 +17 +18 1011.8 1002.4
ЮЗ 2 50 км 8/0
[Ac trans Ci]
+18.4 +11.3 63 +19 +23 1011.9 1002.5 +14.2 +22.5
ЮЗ 4 50 км 9/0
[Ac trans Ci]
+20.1 +10.6 54 +22 +25 комфорт 1012.0 1002.7
ЮЗ 3 50 км 9/0
[Ac trans Ci sp]
+20.3 +11.6 57 +22 +28 комфорт 1012.0 1002.7
ЮЗ 3 50 км 9/0
[Ac trans Ci sp]
+20.3 +12.2 60 +23 +30 комфорт 1012.5 1003.2
ЮЗ 3 50 км в посл. час дождь 9/3 1500 м
[Cu hum Ac trans Ci sp]
+20.0 +11.3 57 +22 +27 комфорт 1012.8 1003.5
ЮЗ 4 50 км 8/3 1500 м
[Cu hum Ac trans Ci fib]
+21.8 +12.2 54 +24 +29 комфорт 1012.7 1003.4
ЮЗ 3 50 км в посл. час дождь 8/6 1500 м
[Cu med, cong Ac trans Ci fib]
+21.8 +12.8 57 +24 +28 комфорт 1012.6 1003.3 0.0
Ю 4 60 км 6/6 1140 м
[Cb cap Ac trans Ci fib]
+23.5 +13.2 52 +26 +30 жарко 1012.0 1002.8
ЮЗ 4 20 км 8/8 1200 м
[Cu Sc Ac trans]
+22.9 +13.2 54 +26 +28 жарко 1011.9 1002.7
ЮЗ 6 30 км в посл. час дождь 8/8 1500 м
[Cu Sc]
+19.5 +15.5 78 +21 +22 комфорт 1012.7 1003.4 0.4
ЮЗ 3 40 км в посл. час дождь 9/8 1500 м
[Cb cap Ac trans]
+21.5 +12.7 57 +24 +24 комфорт 1012.6 1003.3
ЮЗ 3 40 км 9/6 1500 м
[Cb cap Ac As Ci fib]
+22.1 +13.6 59 +25 +26 комфорт 1012.7 1003.4
Ю 2 40 км {дождь} 9/6 1500 м
[Cb cap Ac trans Ci fib]
+21.4 +15.6 70 +25 +25 комфорт 1012.8 1003.5 +18.4 +24.1 0.0
СЗ 3 30 км в посл. час ливневой дождь 9/4 1000 м
[Cb cap Ac As Ci sp]
+20.2 +16.0 77 +23 +23 комфорт 1013.2 1003.9
СЗ 4 30 км 9/4 1000 м
[Cu Sc As trans Ci fib]
+18.4 +15.0 81 +19 +19 1013.7 1004.3
Местоположение метеостанции Берлин-Далем (Германия): широта 52.47 долгота 13.30 высота над уровнем моря 51 м.
В архиве по умолчанию представлена погода в Берлин-Далеме за последнюю неделю. Архивные данные за месяц целиком и за предыдущие месяцы, начиная с января 2011 года, Вы можете получить, выбрав интересующий диапазон дат из раскрывающегося списка и нажав кнопку "Найти!".
*Определитесь, кто Вы:
Внимание! Время в таблицах - всемирное. Для получения местного времени необходимо прибавить поправку, которая равна 1 ч.
Некоторые строки с данными для отдельных станций могут быть выделены курсивом. Это означает, что фактические данные отсутствуют по различным причинам, а приведенные значения являются расчетными модельными данными для данного пункта наблюдений.
Смотрите также архив погоды в соседних городах и на ближайших метеорологических станциях:
Партнеры нашего сайта:      
Пояснения к столбцам:
  • Ветер - указаны скорость ветра в м/с - средняя за 10 мин, порывы в срок и между сроками (в фигурных скобках) и направление, откуда дует ветер: С - северный,
  • СВ - северо-восточный, В - восточный, ЮВ - юго-восточный, Ю - южный, ЮЗ - юго-западный, З - западный, СЗ - северо-западный.
  • Видимость - горизонтальная дальность видимости в метрах или километрах. При видимости от 1 до 10 км при отсутствии осадков обычно наблюдается дымка, при ухудшении видимости до 1 км и менее - туман. В сухую погоду видимость может ухудшаться дымом, пылью или мглою.
  • Явления - указаны атмосферные явления, наблюдавшиеся в срок или в последний час перед сроком; фигурными скобками обозначены явления, наблюдавшиеся между сроками (за 1-3 часа до срока); квадратными скобками обозначены град или гололедные отложения с указанием их диаметра в мм.
  • Облачность - указаны через наклонную черту общая и нижняя облачность в баллах и высота нижней границы облаков в метрах; квадратными скобками обозначены формы облаков: Ci - перистые, Cs - перисто-слоистые, Cc - перисто-кучевые, Ac - высококучевые, As - высокослоистые, Sc - слоисто-кучевые, Ns - слоисто-дождевые, Cu - кучевые, Cb - кучево-дождевые. Подробнее классификацию облаков см. в Атласе облаков (PDF).
  • T - Температура воздуха - температура, измеренная на высоте 2 м над землей.
  • Td - Температура точки росы - температура, при понижении до которой содержащийся в воздухе водяной пар достигнет насыщения.
  • f - Относительная влажность воздуха - влажноcть воздуха, измеренная на высоте 2 м над землей.
  • Te - Эффективная температура - температура, которую ощущает одетый по сезону человек в тени. Характеристика душности погоды. При расчете учитывается влияние влажности воздуха и скорости ветра на теплоощущения человека.
  • Tes - Эффективная температура на солнце - температура, которую ощущает человек, с поправкой на солнечный нагрев. Характеристика знойности погоды. Зависит от высоты солнца над горизонтом, облачности и скорости ветра. Ночью, в пасмурную погоду, а также при ветре 12 м/с и более поправка равна нулю.
  • P - Атмосферное давление - приведенное к уровню моря атмосферное давление.
  • Po - Атмосферное давление - измеренное на уровне метеостанции атмосферное давление.
  • Tmin - Минимальная температура - минимум температуры воздуха на высоте 2 м над землей.
  • Tmax - Максимальная температура - максимум температуры воздуха на высоте 2 м над землей.
  • R - Количество осадков - Количество выпавших осадков за период времени, мм. При наведении курсора мыши на число - период времени, за который выпало указанное количество осадков.
  • R24 - Количество осадков - Количество выпавших осадков за 24 часа, мм.
  • S - Снежный покров - Высота снежного покрова, см. При наведении курсора мыши на число - состояние снежного покрова и степень покрытия местности в баллах.